Погода в Вашингтоне

США     38°53′58″N   77°02′11″W
темп.,
°C
ветер,
м/с
пор.,
м/с
влажн.,
%
обл.,
%
осадки,
мм/ч
давл.,
гПа
погр.,
м
6 мая, чт
чт623:00+13сз611630 0.0 10151222
02:00+10сз510595 0.0 10161172
05:00+8сз410585 0.0 1017739
08:00+9сз49580 0.0 1019612
11:00+13ссз45465 0.0 10191475
14:00+17ссз343957 0.0 10161626
17:00+17сз3342100 0.0 10151781
20:00+14сз1155100 0.0 101520
7 мая, пт
пт723:00+12ю236299 0.0 101598
02:00+10ююв116436 0.0 101312
05:00+9ю116815 0.0 101214
08:00+11юв1362100 0.0 1011266
11:00+15ююз1354100 0.1 10101499
14:00+11зсз3687100 1.8 1009560
17:00+10зсз2696100 9.4 1009436
20:00+9сз3994100 12.7 1010825
8 мая, сб
сб823:00+8сз2893100 0.1 1011416
02:00+6зсз310910 0.1 1010426
05:00+4зсз310890 0.0 1011335
08:00+7сз397376 0.0 1013528
11:00+11сз5759100 0.1 10131564
14:00+12зсз5756100 0.7 10141792
17:00+14зсз584815 0.0 10141927
20:00+11з38600 0.0 1016356
9 мая, вс
вс923:00+9зсз513611 0.0 1018578
02:00+7зсз31171100 0.0 1019343
05:00+7зсз2474100 0.0 1019125
08:00+9з2364100 0.0 1020222
11:00+14юз354399 0.0 10201420
14:00+10юз3681100 0.4 1018490
17:00+9ю1494100 1.4 1016328
20:00+8в3796100 2.3 1014290
10 мая, пн
пн1023:00+9в3897100 0.2 1013363
02:00+8в2598100 0.2 1010178
05:00+9ююз2899100 0.2 1008206
08:00+13ююз41694100 0.5 1007429
11:00+20юз51283100 0.3 1006712
14:00+24юз61262100 0.3 10051526
17:00+20зсз61187100 2.4 10061070
20:00+13сз814721 3.1 1012968